Find Local Weather

World > North America > United States > New York

Haines Falls, New York Regional Weather

Lat: 42.20N, Lon: 74.1W
Wx Zone: NYZ058
Warning FLW WEATHER ALERT - (More Info. Click Here) Warning
Feedback
Expires:201807221300;;872957
ASUS41 KALY 221210
RWRALY

NEW YORK STATE HOURLY WEATHER ROUNDUP
NATIONAL WEATHER SERVICE ALBANY NY
800 AM EDT SUN JUL 22 2018

NOTE: "FAIR" INDICATES FEW OR NO CLOUDS BELOW 12,000 FEET WITH NO
SIGNIFICANT WEATHER AND/OR NO OBSTRUCTIONS TO VISIBILITY.


NYZ032-033-038>043-046>054-057>066-NYZ062>081-082-084-221300-
EAST

  
CITY           SKY/WX    TMP DP  RH WIND       PRES   REMARKS
ALBANY         RAIN      66  62  87 NE8       29.91F VSB 1            
GLENS FALLS    CLOUDY    64  60  87 N9        29.97S                  
POUGHKEEPSIE   LGT RAIN  70  67  90 E8        29.86R FOG              
NEWBURGH       LGT RAIN  68  68 100 E16       29.86R FOG              
MONTGOMERY     CLOUDY    74  70  87 SE7       29.84R                  
WHITE PLAINS   CLOUDY    72  70  93 SE13      29.88R FOG              
ISLIP          CLOUDY    74  73  97 SE13G22   29.90R                  
NEW YORK CITY  CLOUDY    75  69  81 S15G26    29.85R                  
CENTRAL PARK   CLOUDY    72  70  93 S5        29.88R                  
$$


SKY/WX - Weather  TMP - Temperature  DP - Dewpoint  RH - Relative Humidity
WIND - Wind Direction/Speed PRES - Barometric Pressure